#timestamp,LO_Frequency,Hit,Temp,Hum 
1480348815.3,286047016.2,N,0.0,0.0
1480348835.2,286047016.5,N,0.0,0.0
1480348855.9,286047017.1,N,0.0,0.0
1480348875.7,286047016.6,N,0.0,0.0
1480348895.6,286047016.1,N,0.0,0.0
1480348915.4,286047017.6,N,0.0,0.0
1480348935.3,286047017.8,N,0.0,0.0
1480348955.1,286047021.9,N,0.0,0.0
1480348956.0,286047021.9,N,0.0,0.0
1480348975.8,286047019.7,N,0.0,0.0
1480348995.7,286047019.2,N,0.0,0.0
1480349015.5,286047017.8,N,0.0,0.0
1480349035.3,286047016.3,N,0.0,0.0
1480349055.2,286047016.3,N,0.0,0.0
1480349075.0,286047016.0,N,0.0,0.0
1480349075.9,286047016.0,N,0.0,0.0
1480349095.8,286047015.9,N,0.0,0.0
1480349115.6,286047018.1,N,0.0,0.0
1480349135.4,286047015.8,N,0.0,0.0
1480349155.3,286047015.9,N,0.0,0.0
1480349175.1,286047016.0,N,0.0,0.0
1480349195.9,286047015.8,N,0.0,0.0
1480349215.7,286047018.6,N,0.0,0.0
1480349235.5,286047018.7,N,0.0,0.0
1480349255.4,286047018.4,N,0.0,0.0
1480349275.2,286047015.7,N,0.0,0.0
1480349295.0,286047018.5,N,0.0,0.0
1480349296.0,286047018.5,N,0.0,0.0
1480349315.8,286047017.9,N,0.0,0.0
1480349335.6,286047019.0,N,0.0,0.0
1480349355.5,286047021.3,N,0.0,0.0
1480349375.3,286047020.8,N,0.0,0.0
1480349395.1,286047023.6,N,0.0,0.0
1480349415.9,286047022.3,N,0.0,0.0
1480349435.7,286047024.7,N,0.0,0.0
1480349455.6,286047024.0,N,0.0,0.0
1480349475.4,286047026.1,N,0.0,0.0
1480349495.2,286047028.2,N,0.0,0.0
1480349515.1,286047025.8,N,0.0,0.0
1480349516.0,286047025.8,N,0.0,0.0
1480349535.8,286047028.2,N,0.0,0.0
1480349555.6,286047027.5,N,0.0,0.0
1480349575.5,286047028.3,N,0.0,0.0
1480349595.3,286047025.7,N,0.0,0.0
1480349615.2,286047025.7,N,0.0,0.0
1480349635.9,286047027.6,N,0.0,0.0
1480349655.7,286047027.7,N,0.0,0.0
1480349675.6,286047027.3,N,0.0,0.0
1480349695.4,286047027.7,N,0.0,0.0
1480349715.3,286047028.1,N,0.0,0.0
1480349735.1,286047027.1,N,0.0,0.0
1480349736.0,286047027.1,N,0.0,0.0
1480349755.8,286047029.9,N,0.0,0.0
1480349775.7,286047029.6,N,0.0,0.0
1480349795.5,286047027.8,N,0.0,0.0
1480349815.4,286047027.4,N,0.0,0.0
1480349835.2,286047025.9,N,0.0,0.0
1480349855.0,286047026.5,N,0.0,0.0
1480349855.9,286047026.5,N,0.0,0.0
1480349875.8,286047026.0,N,0.0,0.0
1480349895.6,286047026.6,N,0.0,0.0
1480349915.4,286047024.2,N,0.0,0.0
1480349935.3,286047024.5,N,0.0,0.0
1480349955.1,286047023.4,N,0.0,0.0
1480349975.9,286047022.2,N,0.0,0.0
1480349995.7,286047024.4,N,0.0,0.0
1480350015.5,286047025.0,N,0.0,0.0
1480350035.4,286047022.3,N,0.0,0.0
1480350055.2,286047021.2,N,0.0,0.0
1480350075.0,286047020.0,N,0.0,0.0
1480350076.0,286047020.0,N,0.0,0.0
1480350095.8,286047017.5,N,0.0,0.0
1480350115.6,286047016.3,N,0.0,0.0
1480350135.5,286047017.2,N,0.0,0.0
1480350155.3,286047016.9,N,0.0,0.0
1480350175.1,286047015.9,N,0.0,0.0
1480350195.9,286047016.6,N,0.0,0.0
1480350215.7,286047015.2,N,0.0,0.0
1480350235.6,286047013.6,N,0.0,0.0
1480350255.4,286047013.5,N,0.0,0.0
1480350275.2,286047014.0,N,0.0,0.0
1480350295.1,286047011.7,N,0.0,0.0
1480350296.0,286047011.7,N,0.0,0.0
1480350315.8,286047009.8,N,0.0,0.0
1480350335.7,286047009.4,N,0.0,0.0
1480350355.5,286047009.6,N,0.0,0.0
1480350375.3,286047010.4,N,0.0,0.0
1480350395.2,286047010.2,N,0.0,0.0
1480350415.9,286047008.1,N,0.0,0.0
1480350435.7,286047008.5,N,0.0,0.0
1480350455.6,286047006.7,N,0.0,0.0
1480350475.4,286047004.5,N,0.0,0.0
1480350495.3,286047004.7,N,0.0,0.0
1480350515.1,286047006.0,N,0.0,0.0
1480350516.0,286047006.0,N,0.0,0.0
1480350535.8,286047003.4,N,0.0,0.0
1480350555.7,286047003.6,N,0.0,0.0
1480350575.5,286047003.7,N,0.0,0.0
1480350595.3,286047004.4,N,0.0,0.0
1480350615.2,286047002.1,N,0.0,0.0
1480350635.0,286046999.8,N,0.0,0.0
1480350635.9,286046999.8,N,0.0,0.0
1480350655.8,286047000.4,N,0.0,0.0
1480350675.6,286046998.2,N,0.0,0.0
1480350695.4,286046999.4,N,0.0,0.0
1480350715.3,286046999.6,N,0.0,0.0
1480350735.1,286046997.0,N,0.0,0.0
1480350755.9,286046997.3,N,0.0,0.0
1480350775.7,286046995.1,N,0.0,0.0
1480350795.5,286046995.7,N,0.0,0.0
1480350815.4,286046996.2,N,0.0,0.0
1480350835.2,286046996.4,N,0.0,0.0
1480350855.0,286046994.0,N,0.0,0.0
1480350856.0,286046994.0,N,0.0,0.0
1480350875.8,286046994.4,N,0.0,0.0
1480350895.6,286046992.2,N,0.0,0.0
1480350915.5,286046992.9,N,0.0,0.0
1480350935.3,286046992.9,N,0.0,0.0
1480350955.1,286046992.8,N,0.0,0.0
1480350975.9,286046993.1,N,0.0,0.0
1480350995.7,286046990.5,N,0.0,0.0
1480351015.6,286046990.4,N,0.0,0.0
1480351035.4,286046991.1,N,0.0,0.0
1480351055.2,286046988.9,N,0.0,0.0
1480351075.1,286046989.9,N,0.0,0.0
1480351076.0,286046989.9,N,0.0,0.0
1480351095.8,286046987.3,N,0.0,0.0
1480351115.7,286046987.7,N,0.0,0.0
1480351135.5,286046987.9,N,0.0,0.0
1480351155.3,286046988.3,N,0.0,0.0
1480351175.2,286046985.7,N,0.0,0.0
1480351195.0,286046986.0,N,0.0,0.0
1480351195.9,286046986.0,N,0.0,0.0
1480351215.8,286046986.3,N,0.0,0.0
1480351235.6,286046986.7,N,0.0,0.0
1480351255.4,286046984.3,N,0.0,0.0
1480351275.3,286046985.0,N,0.0,0.0
1480351295.1,286046982.5,N,0.0,0.0
1480351315.8,286046982.7,N,0.0,0.0
1480351335.7,286046983.3,N,0.0,0.0
1480351355.5,286046983.3,N,0.0,0.0
1480351375.4,286046980.5,N,0.0,0.0
1480351395.2,286046980.7,N,0.0,0.0
1480351415.0,286046980.7,N,0.0,0.0
1480351415.9,286046980.7,N,0.0,0.0
1480351435.8,286046981.2,N,0.0,0.0
1480351455.6,286046981.9,N,0.0,0.0
1480351475.5,286046979.3,N,0.0,0.0
1480351495.3,286046979.6,N,0.0,0.0
1480351515.1,286046980.2,N,0.0,0.0
1480351535.9,286046977.4,N,0.0,0.0
1480351555.7,286046978.1,N,0.0,0.0
1480351575.5,286046978.5,N,0.0,0.0
1480351595.4,286046975.7,N,0.0,0.0
1480351615.2,286046976.1,N,0.0,0.0
1480351635.1,286046976.3,N,0.0,0.0
1480351636.0,286046976.3,N,0.0,0.0
1480351655.8,286046976.9,N,0.0,0.0
1480351675.6,286046976.7,N,0.0,0.0
1480351695.5,286046977.2,N,0.0,0.0
1480351715.3,286046974.6,N,0.0,0.0
1480351735.1,286046974.8,N,0.0,0.0
1480351755.9,286046975.2,N,0.0,0.0
1480351775.7,286046975.2,N,0.0,0.0
1480351795.6,286046975.5,N,0.0,0.0
1480351815.4,286046973.0,N,0.0,0.0
1480351835.2,286046973.3,N,0.0,0.0
1480351855.1,286046973.1,N,0.0,0.0
1480351856.0,286046973.1,N,0.0,0.0
1480351875.8,286046973.3,N,0.0,0.0
1480351895.7,286046973.3,N,0.0,0.0
1480351915.5,286046973.5,N,0.0,0.0
1480351935.3,286046973.9,N,0.0,0.0
1480351955.2,286046971.0,N,0.0,0.0
1480351975.0,286046971.4,N,0.0,0.0
1480351975.9,286046971.4,N,0.0,0.0
1480351995.7,286046970.9,N,0.0,0.0
1480352015.6,286046970.9,N,0.0,0.0
1480352035.4,286046971.1,N,0.0,0.0
1480352055.3,286046971.7,N,0.0,0.0
1480352075.1,286046971.3,N,0.0,0.0
1480352095.8,286046971.1,N,0.0,0.0
1480352115.7,286046972.0,N,0.0,0.0
1480352135.5,286046971.9,N,0.0,0.0
1480352155.4,286046969.3,N,0.0,0.0
1480352175.2,286046969.7,N,0.0,0.0
1480352195.0,286046969.8,N,0.0,0.0
1480352195.9,286046969.8,N,0.0,0.0
1480352215.8,286046969.9,N,0.0,0.0
1480352235.6,286046970.2,N,0.0,0.0
1480352255.5,286046967.7,N,0.0,0.0
1480352275.3,286046968.2,N,0.0,0.0
1480352295.1,286046968.1,N,0.0,0.0
1480352315.9,286046968.7,N,0.0,0.0
1480352335.7,286046969.2,N,0.0,0.0
1480352355.5,286046969.1,N,0.0,0.0
1480352375.4,286046969.0,N,0.0,0.0
1480352395.2,286046966.1,N,0.0,0.0
